CZ-6A DEB, 60673

Orbit data source: Space-Track

CZ-6A DEB, 60673 is space debris in LEO originally from a launch on Tue, 06 Aug 2024 UTC launched from the Taiyaun Space Center, China (TSC). Debris objects in space refer to the collection of defunct objects orbiting the Earth. Examples of debris include non-operational satellites, rocket bodies, and fragments generated from explosions, collisions, or faulty payload assembly.

Loading next visibility...
Identifier
60673, 2024-140CA
Orbit
LEO
Country
Flag of CNCN / PRC
Related business
Manufacturer
SAST
Mission
Spacecraft
Bus & Motor
Unknown
Mass
Unknown
Launch date (UTC)
2024-08-06 (2 years ago)
Launch vehicle
Unknown
Launch site
Taiyaun Space Center, China (TSC)
Object type
Payload
Rocket body
Debris
Shape & HBR
Unknown shape, 0.6 m
Radar Cross Section
Medium (>0.1 m² and <1 m²)

Expand to show TLE details & history
Last TLE update: 12 hours ago

TLE from 12 hours ago
0 CZ-6A DEB
1 60673U 24140CA  26171.36677931  .00006999  00000-0  69302-3 0  9998
2 60673  89.2778 292.0554 0209620 218.3861 140.2290 14.76671834 99935
Epoch: 2026-06-20T08:48Z
TLE epoch observation values (Epoch: 2026-06-20T08:48:09.732Z)
Latitude
-0.00004°
Longitude
-108.56758°
Altitude
757.312 km
Speed
7.415 km/s
True Right ascension
19h 28m 13s
True Declination
0° 00' 00"
Sunlit
Object was in full shadow at epoch
Visualization orbit readout
Latitude
Unknown
Longitude
Unknown
Altitude
Unknown
Speed
Unknown
Apparent Right ascension
Unknown
Apparent Declination
Unknown
Sunlit
N/A
Visualization observer readout
Local Sidereal Time
07:19:10
Azimuth
Unknown
Elevation
Unknown
Doppler factor
Unknown
Orbital elements
Apogee altitude
783.762 km
Perigee altitude
489.671 km
Semi-major axis
7,014.853 km
Eccentricity
0.02096
Inclination
89.2778°
RAAN
292.0554°
Arg. of periapsis
218.3861°
True anomaly
141.73512°
Mean anomaly
140.229°
Eccentric anomaly
140.98508°
Mean motion
3.69416 °/min
Orbital period
97.45 mins
BSTAR
0.00069302
Loading maneuver chart data...
Computing Atmospheric mass density...
Loading historical data...
Loading historical data...
Loading historical data...
Loading historical data...
Loading historical data...
Loading historical data...
Loading historical data...

Documentation

Showing up to 5 results
|